Spokane, WA

5:56 AM PDT on March 27, 2017 (GMT -0700)
Spokane International

Weather History for KGEG - January, 2012

Change the Weather History Date:

Monday, January 2, 2012

  Actual Average Record
Temperature  
Mean Temperature 31 °F 27 °F  
Max Temperature 37 °F 32 °F 49 °F (1939)
Min Temperature 25 °F 23 °F -6 °F (1978)
Degree Days  
Heating Degree Days 34 38  
Month to date heating degree days 68 76  
Since 1 July heating degree days 2739 2910  
Cooling Degree Days 0 0  
Month to date cooling degree days 0 0  
Year to date cooling degree days 0 0  
Moisture  
Dew Point 24 °F    
Average Humidity 75    
Maximum Humidity 85    
Minimum Humidity 64    
Precipitation  
Precipitation 0.00 in 0.07 in 0.61 in (1951)
Month to date precipitation 0.00 0.13  
Year to date precipitation 0.00 0.13  
Snow  
Snow 0.00 in 0.50 in 7.00 in (1899)
Month to date snowfall 0.0 1.0  
Since 1 July snowfall 9.0 23.1  
Snow Depth 0.00 in    
Sea Level Pressure  
Sea Level Pressure 30.21 in    
Wind  
Wind Speed 8 mph (ENE)    
Max Wind Speed 25 mph    
Max Gust Speed 33 mph    
Visibility 10 miles    
Events      
T = Trace of Precipitation, MM = Missing Value Source: NWS Daily Summary

Daily Weather History Graph

Daily Weather History Graph

Search for Another Location

Airport or City:

Trip Planner

Search our weather history database for the weather conditions in past years. The results will help you decide how hot, cold, wet, or windy it might be!

Date:

Astronomy

Jan. 02, 2012 Rise Set
Actual Time 7:38 AM PST 4:09 PM PST
Civil Twilight 7:02 AM PST 4:45 PM PST
Nautical Twilight 6:23 AM PST 5:24 PM PST
Astronomical Twilight 5:46 AM PST 6:02 PM PST
Moon 11:39 AM PST (1/2) 1:23 AM PST (1/2)
Length of Visible Light 9h 43m
Length of Day
8h 31m
Waxing Gibbous, 65% of the Moon is Illuminated
Jan 2
Waxing Gibbous
Jan 8
Full
Jan 16
Last Quarter
Jan 22
New
Jan 30
First Quarter

Hourly Weather History & Observations

Time (PST) Temp. Windchill Dew Point Humidity Pressure Visibility Wind Dir Wind Speed Gust Speed Precip Events Conditions
12:53 AM 28.9 °F 22.8 °F 21.0 °F 72% 30.38 in 10.0 mi NE 5.8 mph - N/A   Partly Cloudy
1:53 AM 28.0 °F 21.7 °F 21.0 °F 75% 30.37 in 10.0 mi NE 5.8 mph - N/A   Partly Cloudy
2:53 AM 28.9 °F 20.4 °F 21.0 °F 72% 30.35 in 10.0 mi NNE 9.2 mph - N/A   Clear
3:53 AM 28.9 °F 21.1 °F 21.0 °F 72% 30.33 in 10.0 mi NE 8.1 mph - N/A   Clear
4:53 AM 27.0 °F 18.7 °F 21.0 °F 78% 30.31 in 10.0 mi NNE 8.1 mph - N/A   Clear
5:53 AM 28.0 °F 18.6 °F 21.0 °F 75% 30.28 in 10.0 mi NE 10.4 mph - N/A   Clear
6:53 AM 26.6 °F 19.1 °F 21.2 °F 80% 30.20 in 10.0 mi ENE 6.9 mph - N/A   Partly Cloudy
7:53 AM 25.0 °F 18.1 °F 19.9 °F 81% 30.27 in 10.0 mi NE 5.8 mph - N/A   Scattered Clouds
8:53 AM 28.0 °F 20.0 °F 21.9 °F 78% 30.26 in 10.0 mi NE 8.1 mph - N/A   Mostly Cloudy
9:53 AM 30.0 °F 22.4 °F 21.9 °F 72% 30.23 in 10.0 mi NE 8.1 mph - N/A   Mostly Cloudy
10:53 AM 30.9 °F 24.3 °F 23.0 °F 72% 30.20 in 10.0 mi NE 6.9 mph - N/A   Mostly Cloudy
11:53 AM 33.1 °F 26.1 °F 24.1 °F 70% 30.15 in 10.0 mi NE 8.1 mph - N/A   Mostly Cloudy
12:53 PM 35.1 °F 29.3 °F 24.1 °F 64% 30.12 in 10.0 mi NE 6.9 mph - N/A   Mostly Cloudy
1:53 PM 34.0 °F 27.2 °F 25.0 °F 70% 30.08 in 10.0 mi NE 8.1 mph - N/A   Mostly Cloudy
2:53 PM 34.0 °F 29.8 °F 25.0 °F 70% 30.08 in 10.0 mi North 4.6 mph - N/A   Mostly Cloudy
3:53 PM 34.0 °F 29.8 °F 25.0 °F 70% 30.13 in 10.0 mi West 4.6 mph - N/A   Scattered Clouds
4:53 PM 32.0 °F - 24.8 °F 75% 30.05 in 10.0 mi Calm Calm - N/A   Scattered Clouds
5:53 PM 32.0 °F 24.8 °F 25.0 °F 75% 30.14 in 10.0 mi South 8.1 mph - N/A   Scattered Clouds
6:53 PM 32.0 °F 25.6 °F 28.0 °F 85% 30.16 in 10.0 mi South 6.9 mph - N/A   Overcast
7:53 PM 32.0 °F 24.2 °F 28.0 °F 85% 30.16 in 10.0 mi South 9.2 mph - N/A   Overcast
8:53 PM 33.1 °F 24.9 °F 27.0 °F 78% 30.15 in 10.0 mi South 10.4 mph - N/A   Overcast
9:53 PM 35.1 °F 28.6 °F 26.1 °F 70% 30.18 in 10.0 mi SW 8.1 mph - N/A   Overcast
10:53 PM 37.0 °F 25.9 °F 26.1 °F 65% 30.17 in 10.0 mi SSW 23.0 mph 33.4 mph N/A   Overcast
11:53 PM 36.0 °F 26.3 °F 28.0 °F 73% 30.21 in 10.0 mi SW 16.1 mph - N/A   Overcast